Roros Lufthavn, Norway

6:16 AM CET on December 10, 2019 (GMT +0100)
Roros

Weather History for ENRO - October, 2019

Change the Weather History Date:

Wednesday, October 16, 2019

  Actual Average Record
Temperature  
Mean Temperature 35 °F -  
Max Temperature 37 °F 38 °F 53 °F (1998)
Min Temperature 33 °F 28 °F 10 °F (1998)
Degree Days  
Heating Degree Days 30    
Moisture  
Dew Point 35 °F    
Average Humidity 97    
Maximum Humidity 100    
Minimum Humidity 87    
Precipitation  
Precipitation 0.00 in - - ()
Sea Level Pressure  
Sea Level Pressure 29.79 in    
Wind  
Wind Speed 6 mph ()    
Max Wind Speed 13 mph    
Max Gust Speed -    
Visibility 6.2 miles    
Events Rain , Snow    
Averages and records for this station are not official NWS values.
T = Trace of Precipitation, MM = Missing Value Source: Averaged Metar Reports

Daily Weather History Graph

Daily Weather History Graph

Search for Another Location

Airport or City:

Astronomy

Oct. 16, 2019 Rise Set
Actual Time 8:01 AM CEST 5:57 PM CEST
Civil Twilight 7:15 AM CEST 6:43 PM CEST
Nautical Twilight 6:23 AM CEST 7:35 PM CEST
Astronomical Twilight 5:30 AM CEST 8:28 PM CEST
Moon 7:01 PM CEST (10/16) 10:49 AM CEST (10/16)
Length of Visible Light 11h 27m
Length of Day
9h 55m
Waning Gibbous, 94% of the Moon is Illuminated
Oct 16
Waning Gibbous
Oct 21
Last Quarter
Oct 28
New
Nov 4
First Quarter
Nov 12
Full

Hourly Weather History & Observations

Time (CEST) Temp. Windchill Dew Point Humidity Pressure Visibility Wind Dir Wind Speed Gust Speed Precip Events Conditions
12:20 AM 35.6 °F 32.8 °F 35.6 °F 100% 29.86 in 6.2 mi South 3.5 mph - N/A   Overcast
12:50 AM 35.6 °F 32.8 °F 35.6 °F 100% 29.86 in 6.2 mi ESE 3.5 mph - N/A   Overcast
1:20 AM 35.6 °F 31.7 °F 35.6 °F 100% 29.86 in 6.2 mi SSE 4.6 mph - N/A   Overcast
1:50 AM 37.4 °F 32.1 °F 35.6 °F 93% 29.86 in 6.2 mi ESE 6.9 mph - N/A   Overcast
2:20 AM 37.4 °F 33.8 °F 35.6 °F 93% 29.86 in 6.2 mi SSE 4.6 mph - N/A   Overcast
2:50 AM 35.6 °F 30.7 °F 35.6 °F 100% 29.83 in 6.2 mi ESE 5.8 mph - N/A   Overcast
3:20 AM 37.4 °F 32.1 °F 35.6 °F 93% 29.83 in 6.2 mi ESE 6.9 mph - N/A   Overcast
4:20 AM 35.6 °F - 35.6 °F 100% 29.83 in 6.2 mi Variable 2.3 mph - N/A   Overcast
4:50 AM 35.6 °F 32.8 °F 35.6 °F 100% 29.80 in 6.2 mi SSE 3.5 mph - N/A   Overcast
5:20 AM 35.6 °F 31.7 °F 35.6 °F 100% 29.80 in 6.2 mi ESE 4.6 mph - N/A   Overcast
5:50 AM 35.6 °F 31.7 °F 35.6 °F 100% 29.80 in 6.2 mi ESE 4.6 mph - N/A   Mostly Cloudy
6:20 AM 35.6 °F 30.7 °F 35.6 °F 100% 29.80 in 6.2 mi SE 5.8 mph - N/A   Mostly Cloudy
6:50 AM 35.6 °F 32.8 °F 35.6 °F 100% 29.80 in 6.2 mi ESE 3.5 mph - N/A   Mostly Cloudy
7:20 AM 35.6 °F 32.8 °F 35.6 °F 100% 29.80 in 6.2 mi ESE 3.5 mph - N/A   Mostly Cloudy
8:20 AM 35.6 °F 28.6 °F 35.6 °F 100% 29.80 in 6.2 mi ESE 9.2 mph - N/A   Mostly Cloudy
8:50 AM 35.6 °F 28.6 °F 35.6 °F 100% 29.80 in 6.2 mi East 9.2 mph - N/A   Mostly Cloudy
9:20 AM 35.6 °F 28.6 °F 35.6 °F 100% 29.80 in 6.2 mi East 9.2 mph - N/A   Mostly Cloudy
10:20 AM 35.6 °F 28.6 °F 35.6 °F 100% 29.80 in 6.2 mi ESE 9.2 mph - N/A   Mostly Cloudy
10:50 AM 37.4 °F 30.8 °F 35.6 °F 93% 29.80 in 6.2 mi East 9.2 mph - N/A   Mostly Cloudy
11:20 AM 37.4 °F 32.8 °F 35.6 °F 93% 29.80 in 6.2 mi ENE 5.8 mph - N/A   Mostly Cloudy
11:50 AM 37.4 °F 31.4 °F 35.6 °F 93% 29.80 in 6.2 mi ESE 8.1 mph - N/A   Mostly Cloudy
12:20 PM 37.4 °F 30.3 °F 33.8 °F 87% 29.80 in 6.2 mi ESE 10.4 mph - N/A   Mostly Cloudy
12:50 PM 37.4 °F 29.8 °F 33.8 °F 87% 29.77 in 6.2 mi ESE 11.5 mph - N/A   Mostly Cloudy
1:20 PM 37.4 °F 29.8 °F 33.8 °F 87% 29.80 in 6.2 mi ESE 11.5 mph - N/A   Mostly Cloudy
1:50 PM 37.4 °F 30.3 °F 33.8 °F 87% 29.77 in 6.2 mi ESE 10.4 mph - N/A   Mostly Cloudy
2:20 PM 37.4 °F 30.3 °F 35.6 °F 93% 29.77 in 6.2 mi ESE 10.4 mph - N/A   Mostly Cloudy
2:50 PM 37.4 °F 31.4 °F 35.6 °F 93% 29.77 in 6.2 mi ESE 8.1 mph - N/A   Mostly Cloudy
3:20 PM 37.4 °F 29.8 °F 33.8 °F 87% 29.77 in 6.2 mi ESE 11.5 mph - N/A   Mostly Cloudy
3:50 PM 37.4 °F 30.3 °F 35.6 °F 93% 29.77 in 6.2 mi SE 10.4 mph - N/A   Mostly Cloudy
4:20 PM 37.4 °F 32.1 °F 35.6 °F 93% 29.77 in 6.2 mi SE 6.9 mph - N/A   Mostly Cloudy
4:50 PM 35.6 °F 27.1 °F 35.6 °F 100% 29.77 in 6.2 mi ESE 12.7 mph - N/A Rain Light Rain
5:20 PM 35.6 °F 27.5 °F 35.6 °F 100% 29.77 in 6.2 mi ESE 11.5 mph - N/A Rain Light Rain
5:50 PM 35.6 °F 28.0 °F 35.6 °F 100% 29.77 in 6.2 mi ESE 10.4 mph - N/A Rain Light Rain
6:20 PM 35.6 °F 29.9 °F 35.6 °F 100% 29.77 in 6.2 mi ESE 6.9 mph - N/A Rain , Snow Light Rain
6:50 PM 33.8 °F 28.6 °F 33.8 °F 100% 29.77 in 6.2 mi ESE 5.8 mph - N/A Rain , Snow Light Rain
7:20 PM 33.8 °F 27.7 °F 33.8 °F 100% 29.77 in 6.2 mi ESE 6.9 mph - N/A Rain , Snow Light Rain
7:50 PM 33.8 °F 27.7 °F 33.8 °F 100% 29.77 in 6.2 mi ESE 6.9 mph - N/A Rain , Snow Light Rain
8:20 PM 33.8 °F 27.7 °F 33.8 °F 100% 29.77 in 6.2 mi ESE 6.9 mph - N/A Rain , Snow Light Rain
9:20 PM 33.8 °F - 33.8 °F 100% 29.77 in - Variable 2.3 mph - N/A Rain , Snow Light Rain
9:50 PM 33.8 °F 29.6 °F 33.8 °F 100% 29.77 in 5.0 mi ESE 4.6 mph - N/A Snow Light Snow
10:20 PM 33.8 °F 27.7 °F 33.8 °F 100% 29.77 in 6.2 mi ESE 6.9 mph - N/A Rain , Snow Light Rain
10:50 PM 33.8 °F 28.6 °F 33.8 °F 100% 29.77 in 6.2 mi ESE 5.8 mph - N/A Rain , Snow Light Rain
11:20 PM 33.8 °F 29.6 °F 33.8 °F 100% 29.77 in 6.2 mi West 4.6 mph - N/A Rain Light Rain
11:50 PM 33.8 °F - 33.8 °F 100% 29.77 in 6.2 mi Variable 2.3 mph - N/A Rain Light Rain Showers